Alturas, CA

2:17 AM PST on December 14, 2017 (GMT -0800)
Alturas Municipal

Weather History for KAAT - October, 2012

Change the Weather History Date:

Thursday, October 25, 2012

  Actual Average Record
Temperature  
Mean Temperature 35 °F 44 °F  
Max Temperature 48 °F 61 °F 80 °F (1959)
Min Temperature 22 °F 27 °F 11 °F (1997)
Degree Days  
Heating Degree Days 30 21  
Month to date heating degree days 395 431  
Since 1 July heating degree days 551 808  
Cooling Degree Days 0 0  
Month to date cooling degree days 0 0  
Year to date cooling degree days 224 156  
Moisture  
Dew Point 28 °F    
Average Humidity 69    
Maximum Humidity 100    
Minimum Humidity 38    
Precipitation  
Precipitation T in 0.05 in 0.73 in (1931)
Month to date precipitation 0.27 0.72  
Year to date precipitation 6.23 10.38  
Sea Level Pressure  
Sea Level Pressure 30.30 in    
Wind  
Wind Speed 1 mph (ENE)    
Max Wind Speed 9 mph    
Max Gust Speed 13 mph    
Visibility 8 miles    
Events Fog , Snow    
T = Trace of Precipitation, MM = Missing Value Source: NWS Daily Summary

Daily Weather History Graph

Daily Weather History Graph

Search for Another Location

Airport or City:

Trip Planner

Search our weather history database for the weather conditions in past years. The results will help you decide how hot, cold, wet, or windy it might be!

Date:

Astronomy

Oct. 25, 2012 Rise Set
Actual Time 7:26 AM PDT 6:05 PM PDT
Civil Twilight 6:57 AM PDT 6:33 PM PDT
Nautical Twilight 6:25 AM PDT 7:06 PM PDT
Astronomical Twilight 5:53 AM PDT 7:38 PM PDT
Moon 3:56 PM PDT (10/25) 3:25 AM PDT (10/25)
Length of Visible Light 11h 36m
Length of Day
10h 39m
Waxing Gibbous, 85% of the Moon is Illuminated
Oct 25
Waxing Gibbous
Oct 29
Full
Nov 6
Last Quarter
Nov 13
New
Nov 20
First Quarter

Hourly Weather History & Observations

Time (PDT) Temp. Windchill Dew Point Humidity Pressure Visibility Wind Dir Wind Speed Gust Speed Precip Events Conditions
12:55 AM 32.0 °F - 30.9 °F 96% 30.20 in 4.0 mi Calm Calm - 0.01 in Snow Light Snow
1:06 AM 32.0 °F - 30.2 °F 93% 30.17 in 2.5 mi Calm Calm - 0.00 in Snow Light Snow
1:22 AM 32.0 °F - 30.2 °F 93% 30.17 in 5.0 mi Calm Calm - 0.00 in Snow Light Snow
1:55 AM 30.9 °F - 30.0 °F 96% 30.20 in 7.0 mi Calm Calm - 0.00 in   Mostly Cloudy
2:33 AM 32.0 °F - 30.2 °F 93% 30.18 in 7.0 mi Calm Calm - N/A   Scattered Clouds
2:55 AM 30.9 °F - 30.0 °F 96% 30.21 in 8.0 mi Calm Calm - N/A   Clear
3:25 AM 30.2 °F - 28.4 °F 93% 30.19 in 7.0 mi Calm Calm - N/A   Mostly Cloudy
3:55 AM 30.9 °F - 30.0 °F 96% 30.22 in 10.0 mi Calm Calm - N/A   Overcast
4:55 AM 30.9 °F - 30.0 °F 96% 30.24 in 10.0 mi Calm Calm - N/A   Overcast
5:55 AM 30.0 °F - 28.0 °F 92% 30.27 in 9.0 mi Calm Calm - N/A   Partly Cloudy
6:07 AM 28.4 °F - 28.4 °F 100% 30.22 in 1.5 mi Calm Calm - N/A   Partly Cloudy
6:16 AM 28.4 °F - 26.6 °F 93% 30.23 in 0.5 mi Calm Calm - N/A Fog Light Freezing Fog
6:27 AM 28.4 °F - 28.4 °F 100% 30.23 in 1.2 mi Calm Calm - N/A   Scattered Clouds
6:36 AM 26.6 °F - 26.6 °F 100% 30.23 in 3.0 mi Calm Calm - N/A   Mostly Cloudy
6:55 AM 28.9 °F - 28.0 °F 96% 30.31 in 7.0 mi Calm Calm - N/A   Mostly Cloudy
7:55 AM 30.0 °F - 28.9 °F 96% 30.32 in 10.0 mi Calm Calm - N/A   Overcast
8:55 AM 32.0 °F - 30.9 °F 96% 30.35 in 9.0 mi Calm Calm - N/A   Overcast
9:07 AM 32.0 °F - 30.2 °F 93% 30.30 in 10.0 mi Calm Calm - N/A   Overcast
9:22 AM 33.8 °F - 32.0 °F 93% 30.30 in 10.0 mi Calm Calm - N/A   Overcast
9:31 AM 33.8 °F - 32.0 °F 93% 30.30 in 10.0 mi Calm Calm - N/A   Overcast
9:42 AM 33.8 °F - 33.8 °F 100% 30.31 in 10.0 mi Calm Calm - N/A   Mostly Cloudy
9:55 AM 35.1 °F - 33.1 °F 92% 30.35 in 10.0 mi Calm Calm - N/A   Scattered Clouds
10:55 AM 39.0 °F - 32.0 °F 76% 30.36 in 10.0 mi Calm Calm - N/A   Mostly Cloudy
11:22 AM 41.0 °F 39.0 °F 30.2 °F 65% 30.33 in 10.0 mi North 3.5 mph - N/A   Overcast
11:55 AM 39.9 °F 35.8 °F 30.0 °F 68% 30.37 in 10.0 mi North 5.8 mph - N/A   Mostly Cloudy
12:55 PM 42.1 °F - 26.1 °F 53% 30.36 in 10.0 mi Calm Calm - N/A   Partly Cloudy
1:55 PM 46.0 °F 44.8 °F 27.0 °F 47% 30.34 in 10.0 mi SSE 3.5 mph - N/A   Mostly Cloudy
2:55 PM 45.0 °F 43.5 °F 26.1 °F 48% 30.35 in 10.0 mi East 3.5 mph - N/A   Scattered Clouds
3:55 PM 46.0 °F 43.9 °F 24.1 °F 42% 30.34 in 10.0 mi Variable 4.6 mph - N/A   Clear
4:55 PM 46.9 °F - 23.0 °F 39% 30.35 in 10.0 mi ENE 5.8 mph - N/A   Clear
5:55 PM 43.0 °F 40.3 °F 23.0 °F 45% 30.35 in 10.0 mi ENE 4.6 mph - N/A   Clear
6:55 PM 37.0 °F - 24.1 °F 59% 30.41 in 10.0 mi Calm Calm - N/A   Clear
7:55 PM 36.0 °F - 24.1 °F 62% 30.42 in 10.0 mi Calm Calm - N/A   Clear
8:55 PM 30.0 °F - 23.0 °F 75% 30.43 in 10.0 mi Calm Calm - N/A   Clear
9:55 PM 26.1 °F - 21.9 °F 84% 30.43 in 5.0 mi Calm Calm - N/A   Clear
10:55 PM 25.0 °F - 21.9 °F 88% 30.42 in 7.0 mi Calm Calm - N/A   Clear
11:55 PM 25.0 °F - 21.9 °F 88% 30.42 in 10.0 mi Calm Calm - N/A   Clear